Other Surface Observations
Issued by NWS Charleston, SC

Home | Current Version | Previous Version | Text Only | Print | Product List | Glossary On
Versions: 1 2 3 4 5 6 7 8 9 10 11 12 13 14 15 16 17 18 19 20 21 22 23 24 25 26 27 28 29 30 31 32 33 34 35 36 37 38 39 40 41 42 43 44 45 46 47 48 49 50
000
SXUS52 KCHS 291226
OSOCHS

MARINE OBSERVATIONS
NATIONAL WEATHER SERVICE CHARLESTON SC
800 AM EDT SUN MAR 29 2015

...DOWNTOWN CHARLESTON AND HARBOR...

CITY           SKY/WX    TMP DP  RH WIND       PRES   REMARKS
WATERFRONT PRK   N/A     39 N/A N/A N16         N/A  WCI  30
FORT JOHNSON   NOT AVBL

...LAKE MOULTRIE...

CITY           SKY/WX    TMP DP  RH WIND       PRES   REMARKS
PINOPOLIS        N/A     39  25  56 NE15      30.32R WCI  31

...LAKE AND SUPPLEMENTAL COASTAL OBSERVATIONS...

STATION/POSITION TIME  TEMP    WIND        PRES    WAVE   SWELL
                       AIR SEA DIR/SP/G            HT/PER HT/PER/DIR
                 (UTC) (F)     (DEG/KT/KT) (MB)    (FT/S) (FT/S/D)
FORT PULASKI     NOT AVBL
SAPELO ISLAND    1200   44     350/  8     1027.0R
UPR LAKE MARION  NOT AVBL
WINYAH BAY       1100   36      20/  7     1027.0
LAKE MURRAY      1200   35      70/  3/  7 1029.5R
ACE BASIN NERRS  NOT AVBL


...C-MAN AND BUOY OBSERVATIONS...

STATION/POSITION TIME  TEMP    WIND        PRES    WAVE   SWELL
                       AIR SEA DIR/SP/G            HT/PER HT/PER/DIR
                 (UTC) (F)     (DEG/KT/KT) (MB)    (FT/S) (FT/S/D)
BUOY 41004       1150   48 67   20/ 19/ 25 1027.4R   6/ 6
BUOY 41008       1150   53 60   20/ 16/ 19 1026.5R   3/ 4   2/ 90/10
FOLLY BEACH CMAN 1200   39      10/ 20/ 23 1029.4R
CAPERS NS BUOY   NOT AVBL
FRIPP NS BUOY    1100   46      40/ 21/ 27 1026.5R
5E ST. MARYS GA  1121      60                N/A     3/ 4


STATION/POSITION TIME  TEMP    WIND        PRES    WAVE   SWELL
                       AIR SEA DIR/SP/G            HT/PER HT/PER/DIR
                 (UTC) (F)     (DEG/KT/KT) (MB)    (FT/S) (FT/S/D)
FRYING PAN BUOY  1150   43 64   10/ 19/ 25 1028.3R   6/ 6   2/ 80/ 9
BUOY 41025       NOT AVBL
CAPE LOOKOUT NC  1200   34     350/ 16/ 19 1028.3R
BUOY 41002       1150   56 68  330/ 23/ 27 1023.3R  10/ 8
BUOY 41010       1120   65 76  320/ 16/ 21 1023.7R
ST AUGUSTINE FL  1200   47 59  320/  7/  8 1027.6R

$$



USA.gov is the U.S. government's official web portal to all federal, state and local government web resources and services.